Location: Unspecified
(47.5840°N, 122.3000°W)
Time: 18:30:24
(UTC+00:00)

IRIDIUM 114 - Pass Details

Date: 20 March 2026
Orbit: 776 x 779 km, 86.4° (Epoch: 14 April)

Event Time Altitude Azimuth Distance (km) Brightness Sun altitude
Exits shadow 03:07:44 10° 86° (E) 2,330 6.2 -8.7°
Maximum altitude 03:09:01 11° 72° (ENE) 2,270 6.2 -8.9°
Drops below altitude 10° 03:10:20 10° 57° (ENE) 2,338 6.4 -9.1°
Sets 03:14:40 0° 23° (NNE) 3,273 7.4 -9.8°
